GFSGBSN_sfc_rhum_294.txt.gz
RH
91 92 92 93 93 92 90 88 84 79 71 64 61 63 68 71 74 77 78 80 80 80 81 83 85 84 38 26 27 19 52 33 18 18 21 22 23 28 30 27 25 22 25 24 23 20 18
92 92 93 93 93 92 90 88 83 78 71 63 62 66 69 74 75 77 78 80 81 81 83 85 85 84 29 28 20 16 15 14 18 18 20 22 26 26 27 30 27 26 28 26 19 18 20
92 93 93 94 93 92 91 87 83 79 72 61 61 67 70 74 76 77 78 80 81 82 84 85 80 43 24 24 22 16 14 17 19 19 22 22 23 23 29 29 26 28 25 22 19 18 19
93 93 93 94 94 93 91 87 82 79 72 62 61 65 69 77 77 79 80 82 82 84 82 80 77 34 29 22 25 14 14 15 17 19 21 21 21 24 28 29 26 27 27 24 20 20 18
96 93 93 94 94 93 91 86 82 79 72 62 62 65 70 75 79 80 81 85 87 81 77 73 37 25 26 21 15 16 19 16 17 19 20 16 22 30 28 33 30 28 29 26 22 23 26
95 93 93 94 93 92 90 85 82 78 70 63 64 64 72 76 80 78 83 86 66 54 34 25 24 22 17 18 18 16 17 18 21 21 17 21 31 27 29 27 31 30 27 43 28 33 43
97 92 92 93 93 91 88 84 81 76 67 65 63 68 74 79 79 81 54 28 23 33 23 28 32 23 20 16 16 15 16 18 23 23 27 23 27 31 34 29 25 23 27 30 28 32 43
95 92 92 93 93 90 86 84 80 74 66 63 63 70 76 78 81 78 56 49 54 42 23 28 29 24 20 16 19 16 15 22 27 28 26 26 30 27 22 22 25 22 25 29 27 35 39
96 94 93 93 92 89 86 82 79 71 65 61 63 72 77 82 84 55 64 73 64 56 30 26 24 16 15 15 23 19 18 25 25 23 27 30 30 22 21 21 19 29 20 26 30 28 36
96 97 94 93 91 88 85 81 78 71 63 62 65 74 81 84 49 64 57 63 80 63 39 26 18 16 14 19 22 18 14 23 20 25 25 28 26 24 20 17 22 25 22 20 28 26 29
96 97 95 92 90 88 84 81 77 70 64 67 68 75 85 72 51 51 56 74 86 39 44 25 18 13 16 19 20 14 16 15 20 20 23 27 29 31 21 19 17 19 23 23 26 30 25
96 97 94 92 89 87 84 81 74 68 64 68 72 83 76 56 64 71 80 86 44 40 38 24 19 19 21 18 16 16 16 15 19 18 21 27 26 22 27 18 18 19 21 25 32 29 28
97 98 94 91 88 86 83 79 74 68 66 67 74 81 66 65 50 79 89 44 46 57 30 23 21 21 22 20 18 19 22 23 21 18 23 24 19 16 15 16 15 20 22 22 24 26 29
98 98 94 90 87 85 81 77 74 72 67 72 79 72 78 70 84 87 57 36 45 35 32 20 19 20 23 21 20 24 25 26 24 25 31 33 37 18 17 19 22 25 27 28 13 22 27
97 98 92 88 86 83 79 77 76 73 66 71 74 72 76 72 81 76 42 65 51 35 20 16 16 21 26 19 21 24 31 28 31 28 25 27 26 21 22 22 19 25 28 28 35 43 39
97 97 91 88 84 80 78 78 77 72 66 67 64 70 71 80 80 53 39 46 41 34 20 17 21 22 23 24 20 28 32 34 32 35 33 38 20 25 27 22 21 23 23 27 37 35 35
97 96 92 85 82 79 79 78 76 72 70 77 58 48 67 78 52 40 47 43 40 26 25 22 27 24 24 21 21 32 33 34 32 34 36 43 29 18 22 28 32 28 34 42 38 47 45
97 95 93 83 80 79 78 78 77 74 75 68 61 54 68 50 32 61 49 40 40 27 26 25 28 28 24 24 27 37 38 38 36 40 36 42 44 25 31 30 33 35 39 42 45 43 52
97 96 89 79 78 79 79 79 78 75 71 70 75 64 58 43 38 43 44 40 32 30 27 27 31 31 31 30 34 48 46 46 46 42 42 33 28 14 17 34 39 43 42 38 48 51 46
95 93 88 78 80 80 80 80 78 76 77 73 66 72 50 66 62 44 41 44 38 33 29 27 29 30 31 35 43 52 48 50 48 46 54 38 37 17 19 32 52 53 52 50 46 53 47
91 89 86 80 80 80 80 80 78 74 74 70 87 76 56 46 52 52 46 42 38 36 32 32 33 32 29 37 40 58 57 53 48 58 51 32 25 50 50 48 58 57 53 54 50 46 45
91 88 86 82 81 80 80 78 77 73 76 75 89 78 68 48 54 50 62 48 38 38 36 37 34 36 35 35 35 50 52 55 49 56 52 53 42 61 53 57 60 60 54 54 53 50 50
88 88 86 86 83 80 76 75 74 76 67 80 96 90 66 80 48 54 55 54 44 44 54 47 40 47 47 47 51 57 53 54 52 54 58 56 68 71 45 65 50 39 49 54 62 73 61
92 90 88 89 87 85 81 75 73 69 70 77 82 85 86 88 52 42 38 48 54 47 48 60 50 46 52 43 45 48 53 51 51 58 57 67 64 69 77 56 43 31 50 53 63 74 73
89 87 89 89 88 89 89 86 76 74 79 85 97 82 81 92 64 55 52 64 62 66 65 62 59 58 51 50 61 56 68 47 55 52 60 60 68 89 81 86 47 54 67 63 60 62 75
85 87 88 87 88 89 89 88 83 79 79 90 97 96 85 89 76 63 62 60 68 75 70 67 58 58 62 71 72 70 59 42 62 67 60 62 63 60 91 74 60 43 56 55 53 70 78
85 85 86 88 89 90 90 87 83 79 74 81 95 93 78 94 83 77 66 65 66 70 77 69 54 54 66 76 88 74 61 56 69 66 65 68 73 75 90 88 71 52 57 57 70 57 81
84 86 86 87 88 89 91 90 82 78 74 78 94 94 77 96 83 73 68 68 70 73 73 70 67 69 79 72 79 84 85 71 58 61 67 70 84 89 84 92 78 59 59 62 68 85 82
84 85 86 87 87 88 90 91 83 78 78 75 78 87 81 85 81 77 64 61 63 65 77 74 67 67 79 89 94 96 94 96 75 76 63 71 66 76 73 72 70 77 76 82 75 78 82

GFSGBSN_sfc_rhum_297.txt.gz
RH
92 92 93 93 93 92 91 89 86 83 79 73 67 66 72 74 75 75 78 79 80 80 81 85 86 85 28 22 19 15 52 32 14 14 17 18 19 20 19 18 16 18 19 16 15 14 19
95 95 93 93 93 92 91 89 87 82 78 73 67 67 72 74 75 76 77 80 81 82 84 86 84 84 22 24 15 14 13 12 14 13 15 16 17 18 20 20 19 20 14 14 14 15 17
90 95 93 93 93 92 92 90 87 82 78 74 67 67 72 75 77 77 78 80 83 85 85 84 79 33 25 20 17 14 14 12 13 13 14 15 16 17 20 20 21 20 16 15 25 20 20
91 96 93 94 93 93 93 91 87 82 78 73 66 68 72 76 78 77 79 82 85 85 82 74 77 28 28 17 16 12 12 12 13 14 15 15 16 19 20 20 18 19 18 17 26 32 22
90 97 93 93 93 93 93 91 86 82 77 71 65 68 72 78 80 80 79 84 86 80 77 69 34 25 20 20 13 13 14 14 15 14 17 17 20 23 20 20 19 18 18 20 23 31 32
92 94 93 93 93 93 92 90 86 82 77 69 65 66 71 77 81 81 83 83 66 50 29 20 19 23 17 15 15 14 13 15 17 16 15 20 20 17 18 17 20 19 19 26 35 35 33
92 93 94 92 92 92 91 89 86 82 75 66 65 66 72 77 80 84 56 27 26 33 26 25 26 21 16 14 12 13 14 15 18 19 19 21 17 20 21 21 19 19 20 26 38 30 34
92 95 94 92 92 92 90 88 85 81 74 66 62 66 73 78 82 86 57 36 40 39 29 26 25 20 19 14 17 14 14 19 22 21 20 18 21 20 18 19 16 18 25 38 35 31 33
94 95 95 92 91 91 90 87 85 79 72 65 63 68 75 82 86 60 60 60 59 46 32 24 20 14 12 15 18 16 16 21 19 23 23 24 20 18 15 16 17 17 16 20 30 33 32
96 96 97 92 91 91 89 87 84 77 70 62 65 71 82 83 53 54 47 54 70 57 35 24 15 12 13 17 18 13 12 16 17 20 20 22 22 18 15 13 15 18 14 17 35 33 34
97 95 96 93 92 91 89 86 82 75 65 60 68 75 84 69 57 44 47 66 74 47 47 22 14 11 15 16 16 14 13 12 15 19 19 20 24 24 17 13 13 16 16 15 25 26 20
96 94 96 94 92 90 89 86 81 75 64 60 70 82 75 58 64 61 70 72 50 40 40 18 14 16 17 16 15 14 15 14 13 18 19 20 18 15 17 13 13 16 17 20 22 21 18
97 96 95 97 92 90 87 84 80 73 66 61 70 82 66 62 51 75 81 50 45 57 28 18 17 18 18 17 18 18 19 21 17 17 21 21 16 13 13 12 14 17 15 13 16 20 17
95 97 96 97 91 89 86 82 78 73 69 64 78 74 78 69 73 81 60 41 47 34 25 16 17 18 20 16 19 21 20 20 21 20 20 23 28 16 17 16 16 21 18 18 10 10 15
94 96 97 97 90 88 84 78 77 76 71 72 76 72 72 77 77 68 47 67 54 33 18 16 15 19 18 14 20 22 26 22 24 23 18 19 18 16 21 18 14 18 21 21 29 31 27
94 96 96 96 89 86 80 76 77 77 73 76 62 64 68 80 76 58 44 47 36 26 17 14 20 19 21 16 16 22 23 25 23 29 24 28 13 17 20 16 18 17 18 19 24 22 21
95 96 98 94 88 82 76 78 79 76 78 74 61 46 68 76 61 46 49 45 38 23 22 20 21 21 23 18 18 23 24 26 24 26 27 28 20 13 16 24 21 20 24 32 27 30 24
97 98 98 96 85 78 75 78 78 78 82 63 69 57 69 61 38 55 46 38 38 24 24 24 27 24 24 22 22 27 28 28 32 28 23 33 32 16 23 27 26 24 29 30 25 32 40
98 97 98 95 83 76 76 79 79 80 71 66 66 60 61 54 40 42 44 36 30 26 26 25 27 28 24 30 32 38 37 38 36 32 33 30 24 12 15 25 29 32 32 33 38 36 34
98 98 97 93 82 76 78 80 79 80 76 67 62 72 47 63 58 48 46 41 36 30 27 28 29 29 31 32 43 46 39 41 40 37 53 37 27 18 13 19 35 38 38 34 32 34 30
98 97 96 93 80 78 79 80 80 80 80 67 83 75 57 48 50 52 46 41 37 35 30 28 30 29 31 37 40 44 45 40 39 51 42 31 26 30 30 28 42 40 35 39 38 31 28
97 96 96 93 81 79 81 80 81 82 77 73 87 72 62 52 60 52 58 46 38 35 35 35 35 32 30 38 35 48 45 43 40 44 40 44 38 47 37 48 47 46 38 41 43 41 37
92 93 93 88 85 82 80 81 78 80 68 77 92 83 64 69 57 49 54 50 39 47 50 41 38 42 41 35 39 47 47 50 46 48 50 46 50 46 26 45 30 30 30 40 42 42 35
89 89 89 85 80 80 79 79 79 69 69 73 79 74 86 78 53 48 47 48 46 43 50 52 44 44 45 46 46 47 48 49 49 55 48 52 48 50 48 38 45 28 38 42 42 50 55
91 88 87 88 86 82 79 78 76 81 78 81 89 71 78 86 58 45 53 66 60 63 62 56 54 53 51 49 60 56 59 40 47 52 49 49 51 72 68 56 34 36 52 48 45 40 53
90 89 89 89 90 88 86 80 79 81 81 86 93 92 81 89 76 57 61 57 64 68 64 59 54 57 61 54 64 74 68 40 48 54 52 51 50 44 81 56 48 27 46 42 39 47 58
92 92 90 91 91 89 87 86 83 79 77 80 89 90 75 97 77 70 63 61 62 65 69 62 55 54 58 60 70 72 59 38 53 54 55 55 56 56 65 71 51 36 46 45 51 35 60
92 90 91 94 94 91 85 83 82 81 77 78 88 88 72 96 76 67 63 66 64 66 68 67 65 65 67 64 74 74 63 53 49 50 52 52 68 68 61 71 67 46 48 49 52 68 61
90 91 93 94 94 93 88 82 80 81 76 74 73 83 78 81 78 72 63 59 59 61 71 68 66 63 73 83 76 77 81 80 57 55 54 56 52 59 59 52 52 55 56 62 57 58 62

GFSGBSN_sfc_rhum_303.txt.gz
RH
82 85 91 92 94 92 90 90 89 88 85 81 76 66 68 72 74 74 76 76 77 78 82 84 85 85 29 14 9 7 36 28 6 6 7 8 7 7 8 8 8 12 14 15 16 19 19
82 86 91 91 95 93 90 90 90 90 86 82 77 69 65 70 73 75 76 76 78 79 82 85 84 87 18 12 8 7 6 6 5 6 8 8 9 8 9 9 9 9 10 12 16 19 19
83 84 90 92 95 94 92 92 91 89 86 83 77 72 63 71 73 76 75 77 79 80 83 83 82 23 10 11 7 6 6 6 6 7 8 10 9 10 10 10 8 9 12 12 14 17 19
82 83 87 92 94 95 94 92 92 90 87 83 77 72 67 68 72 76 76 78 79 80 83 81 79 17 13 8 6 6 6 6 7 7 9 9 10 11 12 10 10 10 11 16 14 11 14
83 84 86 90 95 95 94 92 92 90 87 83 78 69 68 69 73 78 79 80 77 79 78 68 21 15 11 16 7 6 7 7 8 8 9 10 10 12 12 12 13 12 12 13 14 12 11
83 84 86 92 95 95 94 92 92 91 87 83 78 66 66 69 75 80 82 77 56 56 31 10 8 11 9 8 8 7 7 8 9 9 10 11 9 10 9 10 12 13 12 12 16 14 13
83 84 86 91 92 95 93 92 92 91 88 83 78 66 64 71 71 82 47 14 13 17 12 13 11 10 8 7 7 7 8 9 9 10 12 11 10 12 13 11 9 9 9 14 16 17 18
83 84 87 90 93 95 93 91 92 91 87 83 76 64 64 71 77 83 43 16 27 27 14 10 9 9 8 8 9 8 8 10 12 12 11 11 15 11 10 9 9 10 11 15 16 17 17
85 86 88 91 93 94 93 92 92 90 87 82 74 64 64 75 82 52 25 22 23 24 14 11 9 8 8 7 9 9 9 9 10 11 11 13 12 11 10 8 8 8 9 15 13 17 16
86 89 89 92 95 95 93 92 91 90 86 80 71 62 69 82 47 22 23 25 25 36 18 13 10 8 9 8 9 6 7 10 12 12 12 14 12 11 10 10 9 11 7 6 14 15 16
92 94 90 90 96 96 94 93 91 89 86 78 69 64 69 76 36 20 26 27 32 40 29 11 9 7 9 11 8 7 6 10 12 13 13 17 15 14 13 11 10 13 9 7 10 14 14
95 93 91 90 96 97 96 94 91 89 85 76 66 70 82 38 32 27 26 35 38 23 33 14 10 10 9 8 8 6 7 8 10 11 11 13 10 9 11 10 10 9 10 10 10 12 17
94 91 90 90 96 98 95 93 90 87 83 74 68 78 66 27 28 30 42 37 20 27 14 14 12 10 9 10 10 8 9 10 9 15 15 10 10 9 10 11 10 10 12 13 15 15 14
94 92 90 92 92 94 97 92 89 85 78 74 85 75 59 31 28 46 39 27 26 14 15 9 10 10 12 11 11 10 10 9 8 8 8 12 17 11 10 12 12 10 10 13 16 11 9
93 92 92 92 91 94 98 92 88 82 77 81 81 50 44 48 49 50 24 37 28 16 11 11 10 13 13 11 11 12 12 10 9 10 12 9 10 9 10 10 9 12 11 12 13 12 16
93 93 94 95 92 92 98 94 86 78 78 82 37 40 35 47 56 49 27 31 20 12 9 10 13 12 16 12 14 15 14 10 11 11 12 10 13 8 10 9 9 10 10 14 14 20 19
93 93 94 95 95 94 95 91 83 77 78 80 49 36 54 48 57 29 33 22 19 10 9 11 12 15 13 14 13 15 14 12 11 10 10 11 12 14 9 11 9 10 10 14 12 12 16
94 94 94 94 95 92 95 92 81 77 81 72 44 42 52 50 34 24 26 17 32 13 12 13 13 14 15 14 16 16 17 16 12 12 14 17 17 16 10 14 11 11 12 13 17 16 18
95 93 94 96 95 95 97 90 78 76 69 37 37 35 45 54 28 26 24 20 14 13 12 14 16 15 14 18 24 20 23 20 17 15 19 15 18 18 16 17 15 14 13 12 14 19 19
91 93 94 96 95 95 97 87 76 74 66 60 38 55 29 31 28 25 28 23 22 15 16 16 16 16 20 23 20 26 26 24 20 18 47 25 17 19 19 14 14 15 12 12 14 21 18
90 93 96 96 96 97 97 92 75 72 68 59 45 53 29 37 32 27 24 21 20 20 16 15 18 17 20 25 25 26 25 26 23 40 22 23 25 19 15 10 11 12 10 8 10 13 19
90 90 94 95 96 98 97 93 79 74 72 48 71 49 35 38 31 28 35 25 20 20 18 21 21 19 21 27 23 28 25 26 25 24 25 23 28 25 24 13 16 17 13 11 10 11 11
91 92 94 94 96 98 98 93 83 79 62 34 61 44 35 53 36 37 32 25 20 27 32 20 19 23 26 27 26 26 26 23 24 27 29 30 27 32 29 18 19 29 19 14 12 11 15
92 93 97 98 97 98 97 92 84 75 65 44 44 38 53 55 30 25 28 26 26 29 31 27 22 25 34 25 25 26 26 26 26 28 23 30 29 30 38 28 87 24 17 17 16 15 16
92 93 96 96 97 96 96 91 82 77 67 44 50 49 51 67 31 30 32 35 36 39 37 39 43 33 31 27 35 38 42 34 31 29 27 25 28 52 84 43 28 16 15 19 21 17 17
93 94 94 94 97 96 94 90 77 72 76 50 56 67 57 80 53 29 39 37 44 52 48 49 40 35 34 26 44 98 80 36 36 33 28 27 32 36 96 99 54 27 20 19 20 25 19
95 95 96 96 95 96 94 84 74 82 78 48 59 74 48 96 58 53 47 41 29 35 51 48 49 46 45 36 54 63 48 24 35 34 40 40 38 45 48 79 48 16 21 21 34 36 22
95 95 95 94 93 90 90 78 82 84 77 46 62 62 54 81 63 52 48 44 44 40 46 47 44 46 43 47 54 67 52 35 28 22 29 34 44 48 39 51 69 20 24 29 40 32 27
94 93 92 91 92 89 86 85 84 81 76 56 49 50 53 61 71 58 61 56 55 53 46 50 50 42 38 49 47 42 64 44 35 42 23 35 26 37 29 30 32 23 28 32 30 29 33

GFSGBSN_sfc_rhum_306.txt.gz
RH
84 83 85 91 91 93 92 90 89 89 87 85 83 78 76 73 74 73 76 76 74 74 76 80 83 85 28 16 13 7 34 27 9 5 7 7 8 7 7 8 11 15 13 16 16 16 17
86 85 86 89 91 92 94 92 91 90 89 85 83 79 76 73 75 75 76 73 74 75 76 79 83 86 23 21 7 6 6 5 5 6 7 8 8 8 8 9 10 13 17 18 17 18 18
86 86 87 88 92 91 94 94 92 91 89 87 84 80 75 73 75 75 75 72 73 75 76 78 80 25 18 13 6 6 6 6 6 6 8 9 8 10 9 10 9 11 17 17 19 18 18
86 86 86 89 91 92 94 95 93 91 90 87 84 81 75 73 75 76 73 72 74 73 75 78 81 21 20 8 6 6 6 6 6 6 8 9 9 10 11 9 9 12 13 18 14 17 17
86 87 86 86 91 92 93 95 94 92 90 88 84 81 75 72 77 77 73 73 71 71 78 70 23 18 14 18 7 6 6 7 7 7 9 8 11 11 11 12 13 13 14 18 15 12 13
86 87 86 86 90 91 93 96 94 93 90 88 84 81 75 73 76 78 77 70 46 58 26 14 10 13 10 8 7 7 6 8 8 9 10 12 10 14 12 12 14 14 12 12 17 13 11
87 86 87 85 91 90 92 95 95 93 92 88 84 80 74 72 76 77 57 19 14 19 16 11 9 9 8 6 6 7 7 8 9 10 13 11 13 14 13 10 8 8 9 16 16 14 15
87 86 87 85 90 91 92 95 95 94 92 88 85 79 71 71 77 80 56 22 23 27 19 11 9 8 7 7 9 7 7 11 12 13 10 12 14 10 8 8 8 10 11 16 14 15 17
88 87 87 86 89 91 92 94 95 94 91 88 84 78 70 76 79 55 29 20 19 27 26 10 7 7 7 7 9 8 8 9 10 11 11 14 12 10 9 8 8 8 8 13 12 16 14
89 89 88 87 90 91 94 95 95 93 91 89 83 76 71 79 50 25 23 20 20 36 28 13 10 8 7 7 9 6 7 10 10 11 12 13 10 10 9 9 10 12 7 6 6 15 17
91 90 89 88 92 95 96 96 95 93 91 88 82 74 70 74 48 31 23 23 29 43 34 10 8 7 8 10 7 6 6 9 11 12 12 16 13 12 12 12 10 13 10 8 7 11 16
91 91 91 88 94 95 97 97 96 93 91 88 81 74 76 38 43 32 23 28 41 32 39 13 10 10 12 9 8 5 6 8 9 10 12 13 8 9 11 10 10 9 10 11 11 12 17
94 94 91 90 92 94 97 96 95 93 90 86 78 72 60 27 34 26 38 43 26 36 13 14 12 10 10 10 8 7 9 10 11 16 15 10 9 9 9 10 10 10 13 18 20 19 17
95 93 92 90 93 96 97 96 95 93 88 83 78 79 56 30 32 38 53 31 29 12 14 10 10 10 11 10 10 9 10 10 8 9 10 13 19 10 10 12 13 12 10 18 18 16 12
94 91 92 92 91 93 98 97 95 92 85 80 81 60 57 55 56 57 48 44 29 12 9 11 11 12 12 10 11 11 12 9 9 11 13 10 14 9 9 8 8 12 12 12 14 13 16
94 93 92 92 91 89 95 97 95 90 80 81 44 58 52 60 60 61 54 37 18 14 9 10 15 12 15 12 13 15 13 9 10 9 11 12 16 8 10 7 7 9 9 12 16 26 22
94 93 92 92 93 91 96 97 95 88 78 79 52 50 64 59 67 47 50 28 13 13 10 12 13 12 13 13 12 15 14 11 10 8 9 10 14 15 9 10 11 12 11 14 14 15 18
94 94 94 94 95 93 95 97 94 86 78 62 60 50 67 70 43 33 39 22 20 14 11 11 14 12 14 14 15 15 17 14 10 10 16 20 20 20 13 12 9 8 11 11 18 20 22
94 94 94 94 95 94 95 96 96 86 63 41 50 44 61 71 44 37 28 18 15 14 12 13 15 14 13 15 20 19 25 16 14 15 24 14 21 22 16 15 14 11 11 11 13 18 24
92 95 93 93 95 94 93 97 96 86 64 49 52 62 40 48 44 39 32 22 20 12 12 12 15 15 16 22 19 26 26 22 17 21 47 34 19 23 26 18 12 17 13 10 13 24 22
92 94 93 92 94 94 94 96 96 91 73 53 53 56 41 46 39 44 30 25 21 20 15 15 18 17 21 27 26 27 26 25 20 33 20 25 29 23 18 15 12 12 11 10 10 11 18
90 93 93 93 96 94 95 94 97 92 79 50 66 50 46 44 41 43 42 30 22 18 19 20 22 18 20 26 23 29 27 25 26 22 24 23 30 27 29 19 16 17 16 14 12 11 11
90 92 93 94 96 95 95 96 96 93 68 43 40 53 62 59 42 42 39 29 23 26 31 18 20 23 32 33 31 30 28 26 28 27 31 34 32 38 38 19 21 38 24 17 13 12 11
90 92 92 95 95 95 93 96 97 93 59 38 43 44 59 73 36 34 30 27 28 29 35 31 26 37 32 26 29 32 30 27 25 26 24 33 33 36 54 35 83 26 16 14 17 12 12
91 92 91 93 93 95 95 97 96 92 74 42 48 53 56 71 36 31 32 43 38 39 48 48 42 33 32 34 46 50 54 36 30 27 27 25 35 70 93 60 36 23 16 17 17 18 12
92 92 92 95 96 97 97 97 97 92 77 50 52 69 57 83 68 37 42 44 53 57 50 47 45 46 45 40 70 100 92 41 38 33 26 25 31 47 100 100 63 28 18 16 17 26 18
93 92 92 95 96 97 97 97 98 92 78 46 51 75 57 96 65 58 48 48 37 42 54 53 50 47 52 59 84 88 71 25 40 36 40 40 40 54 63 84 57 24 19 18 33 41 22
93 93 93 94 94 96 97 98 97 87 73 54 59 62 60 85 70 66 64 56 43 46 59 59 58 58 63 68 76 81 69 38 32 23 33 41 54 61 52 64 73 20 22 26 43 30 24
92 93 93 93 94 95 96 97 97 86 73 67 52 52 56 74 80 67 66 58 61 62 54 62 64 55 57 71 64 60 89 64 44 59 23 42 34 49 41 40 32 22 32 34 30 27 28

GFSGBSN_sfc_rhum_312.txt.gz
RH
87 88 91 89 88 88 89 88 92 94 92 89 87 87 86 86 84 83 80 79 76 74 73 75 76 78 38 27 22 14 41 29 9 8 11 15 16 18 22 26 23 27 26 23 23 23 23
87 89 90 92 89 88 88 89 92 95 94 92 90 89 87 87 85 83 79 78 76 73 72 75 77 82 40 28 18 10 9 9 9 11 11 15 18 17 21 26 28 26 24 24 23 24 24
86 89 90 91 91 89 88 90 92 95 95 93 90 89 90 87 86 83 79 76 75 72 69 74 78 39 37 21 18 12 10 11 11 11 12 14 15 18 21 26 21 23 29 28 26 28 30
87 88 89 92 93 91 90 89 90 93 93 94 92 89 90 89 88 84 79 75 70 68 69 78 76 38 28 19 14 10 10 10 10 10 14 16 14 18 16 22 24 29 32 38 29 28 27
88 89 89 91 93 93 90 90 90 91 92 94 92 90 90 89 88 85 79 68 62 69 76 79 48 39 25 19 13 10 12 12 11 12 13 10 17 17 16 24 28 32 44 39 34 27 26
86 87 89 90 92 92 92 90 90 91 91 94 94 90 89 88 88 85 76 60 56 68 34 27 20 27 18 16 11 11 12 12 15 14 15 17 22 24 23 25 32 28 36 42 37 31 31
83 84 86 89 92 92 92 90 90 92 94 94 95 91 89 86 87 84 58 43 38 37 36 18 19 20 13 10 11 12 12 12 17 17 23 21 22 25 20 18 17 21 25 26 27 25 36
86 87 87 88 90 91 91 91 91 93 97 96 94 91 88 86 85 78 70 42 40 40 48 32 29 18 10 11 15 13 11 18 23 21 21 18 20 15 11 12 15 24 26 31 29 24 35
90 92 93 89 88 92 91 92 93 94 97 97 95 91 87 87 79 57 44 39 35 47 53 38 23 15 10 11 15 12 14 18 20 23 21 21 16 15 11 15 12 19 27 28 27 26 34
91 94 95 93 90 92 92 93 93 94 96 97 96 92 86 77 53 55 55 38 42 57 48 31 17 12 10 12 16 9 12 15 22 19 18 18 16 15 15 16 16 15 16 12 26 28 29
93 95 96 94 94 94 94 95 94 94 96 97 96 92 84 62 53 46 46 38 51 43 47 20 15 11 11 13 13 11 12 17 22 18 22 24 18 19 18 17 17 19 17 18 16 23 29
94 95 95 95 95 95 95 96 95 96 98 97 95 91 75 61 60 41 48 50 46 46 52 27 15 14 16 16 12 10 13 16 16 17 16 16 14 15 17 16 15 16 17 21 23 20 26
93 95 95 95 95 95 95 96 96 97 98 97 95 89 61 43 60 55 72 66 39 55 24 22 18 18 19 19 14 10 13 19 19 24 25 16 16 15 13 18 17 16 24 36 32 37 35
93 96 95 95 95 95 96 97 98 98 98 97 94 85 73 51 49 48 80 72 36 33 25 20 18 20 23 18 15 13 15 17 17 20 22 23 23 17 17 20 20 20 20 35 28 37 29
94 94 95 94 93 93 94 96 97 98 98 97 82 73 62 71 55 68 73 82 53 31 14 18 18 22 24 17 17 17 20 20 16 22 23 29 25 14 13 15 13 20 19 20 26 35 30
95 95 93 93 92 92 94 95 98 96 98 90 75 80 76 60 77 84 86 66 56 28 17 18 21 21 25 18 19 22 19 16 16 16 23 21 26 16 17 12 13 15 16 21 33 35 33
94 93 94 92 90 90 98 92 97 96 96 90 86 83 74 82 79 87 94 74 45 27 21 23 23 23 22 21 20 27 21 19 15 14 20 21 25 23 15 16 15 19 19 22 26 40 31
92 86 94 93 91 88 91 97 96 97 97 94 82 86 84 85 85 93 86 51 44 30 31 20 26 22 25 23 26 27 26 26 23 22 27 30 36 29 19 19 14 15 18 26 40 31 45
93 84 91 93 92 90 91 95 97 98 96 92 87 86 73 72 76 66 57 42 33 35 33 26 25 24 26 27 33 38 34 32 36 34 26 24 34 35 26 26 24 17 14 16 32 38 34
95 93 93 94 92 91 91 94 96 97 96 94 84 80 77 89 79 57 55 43 44 29 28 29 26 26 35 41 41 41 36 35 34 24 52 43 36 41 40 34 30 31 20 18 26 39 37
93 96 96 94 93 93 92 93 96 96 98 91 85 77 70 91 77 63 52 53 34 40 26 28 25 25 38 44 44 46 39 37 31 39 34 40 42 42 36 32 32 28 20 19 20 24 30
92 94 96 95 94 94 93 94 96 96 98 90 96 82 69 65 61 62 61 54 47 35 31 28 32 39 41 44 39 46 37 38 32 33 36 41 45 46 42 34 31 34 30 25 26 26 26
91 93 96 95 94 93 93 94 95 97 96 98 85 85 64 69 63 64 56 47 46 47 42 46 42 50 52 49 43 38 41 42 38 39 46 44 53 61 47 46 41 47 41 34 29 26 26
91 92 93 95 95 94 93 95 97 93 92 96 94 82 93 81 60 50 45 43 43 46 41 53 51 45 41 39 35 37 40 44 46 48 44 50 55 63 74 55 60 40 30 23 25 26 30
92 91 92 93 94 93 93 95 96 96 93 98 97 94 98 91 56 51 47 49 54 56 58 64 58 57 44 53 60 56 69 48 45 43 40 46 60 82 78 80 49 34 28 29 28 32 37
92 91 91 93 94 93 94 95 97 95 94 98 99 98 97 97 80 63 46 58 63 64 64 61 54 61 59 69 70 78 71 56 56 45 36 45 62 68 91 74 63 43 28 26 26 40 38
89 91 91 93 94 93 94 96 97 96 95 98 99 96 98 99 90 90 69 63 61 66 71 66 56 49 61 79 90 84 77 53 64 55 51 58 62 76 87 82 71 46 34 28 42 47 42
88 90 91 93 94 94 95 95 96 96 96 97 98 97 98 97 91 88 82 71 69 67 67 59 58 59 74 79 82 88 81 60 58 50 52 60 77 83 82 83 73 38 28 34 44 50 56
87 90 91 92 94 94 95 96 95 96 96 95 99 97 97 97 89 83 78 81 82 77 75 70 62 60 68 84 90 86 85 77 59 76 48 58 58 68 61 66 49 40 43 52 44 48 57

GFSGBSN_sfc_rhum_318.txt.gz
RH
80 79 85 87 90 92 91 89 89 90 92 95 96 95 93 92 90 90 90 87 84 82 79 78 76 78 45 23 22 19 44 29 12 12 16 20 21 31 35 34 33 36 35 33 30 31 35
84 84 86 89 91 91 91 91 89 89 90 94 96 97 96 93 91 90 89 86 83 80 77 78 77 84 39 24 19 17 18 10 12 13 14 22 26 28 32 34 35 32 30 32 30 33 32
80 86 88 91 91 92 92 93 91 90 89 90 94 96 97 95 92 91 88 85 83 78 76 77 79 51 35 20 23 19 14 13 14 14 16 20 23 25 29 33 30 27 32 32 33 35 34
83 83 85 90 90 91 93 93 92 89 88 88 90 94 97 97 94 91 88 84 81 77 74 79 76 40 23 17 25 16 13 12 13 15 16 17 21 27 30 26 30 32 36 44 34 33 32
82 85 85 89 90 91 92 93 93 91 89 89 89 93 96 97 94 91 88 82 75 74 79 76 58 36 21 21 15 13 13 14 14 16 18 15 20 29 32 33 40 40 46 46 39 33 33
75 76 88 90 91 91 91 92 93 92 91 91 89 91 95 97 94 92 88 72 63 71 52 46 24 28 18 20 15 13 14 15 16 20 20 20 25 31 34 40 47 45 46 51 42 36 38
78 82 85 88 89 89 90 92 93 93 93 92 90 91 96 98 94 91 75 44 44 35 43 23 21 23 19 18 14 14 15 17 18 19 26 22 32 38 32 34 32 35 37 42 47 36 39
82 81 81 82 85 86 86 90 94 94 93 92 92 92 97 97 93 87 67 41 53 59 63 40 38 36 30 25 17 15 15 20 22 24 26 23 31 29 26 24 22 31 39 40 32 37 34
89 90 88 86 86 89 90 90 94 95 93 93 93 94 97 95 91 60 64 50 50 57 54 33 32 30 19 14 16 16 16 20 23 25 26 27 24 16 16 25 24 31 34 36 33 39 46
90 90 92 89 86 86 91 93 94 95 94 94 94 96 96 84 69 57 56 46 53 67 38 24 33 23 14 14 17 14 15 18 22 22 22 24 18 15 17 21 21 26 24 27 34 37 39
89 89 91 94 89 88 95 95 95 95 94 95 96 96 91 73 72 58 45 50 65 41 34 20 25 17 17 15 17 16 14 18 21 22 22 25 21 19 20 18 17 20 17 23 33 34 34
87 88 91 95 97 94 97 95 97 96 96 96 97 98 83 72 64 58 58 66 47 38 41 26 21 20 18 19 16 13 16 16 20 18 17 20 17 19 18 17 19 18 22 25 30 26 30
86 87 93 96 96 96 96 96 97 97 97 97 99 97 82 55 58 59 71 46 37 48 26 24 21 22 22 22 18 15 18 22 22 25 26 19 18 17 15 17 19 20 20 30 33 36 31
86 87 94 97 97 97 97 97 98 97 97 99 100 94 86 74 76 72 69 51 39 33 29 23 23 25 23 22 22 16 21 22 22 26 23 25 28 15 18 19 19 22 21 34 25 35 36
86 87 96 97 97 97 97 97 98 99 98 98 92 82 79 78 75 80 61 69 49 31 24 23 24 25 28 25 22 18 22 24 19 21 25 28 27 16 17 15 17 21 21 21 30 43 37
86 89 96 97 97 97 98 98 98 99 98 93 85 94 91 72 76 92 77 69 46 41 36 26 24 27 29 27 21 20 20 20 18 20 25 25 28 19 18 12 13 20 18 25 34 31 31
86 91 95 96 96 96 96 96 98 98 87 92 92 92 87 86 84 92 96 82 50 39 38 34 30 31 29 28 23 25 22 21 19 18 20 23 26 25 18 16 13 18 19 30 29 42 34
87 94 94 94 93 97 96 90 89 93 94 90 95 93 86 92 84 95 93 76 55 39 37 35 33 33 33 30 27 26 25 22 29 26 21 32 32 29 20 21 16 19 18 27 30 32 51
88 95 91 94 92 92 97 91 93 96 90 97 96 92 87 79 95 93 76 56 49 45 42 39 41 40 35 35 32 35 32 35 40 27 27 28 36 37 28 25 25 17 17 30 38 43 50
89 95 92 90 94 91 93 95 99 96 90 95 88 96 94 96 91 76 64 64 55 42 39 39 38 36 38 43 43 44 40 39 35 31 60 43 41 37 38 30 31 25 17 28 28 38 38
90 94 91 80 95 93 91 97 90 97 90 92 96 88 84 99 95 78 61 56 56 53 39 36 38 40 38 42 42 46 44 39 30 47 48 35 38 42 44 36 30 25 22 24 24 29 28
89 92 93 80 82 94 92 95 95 96 94 94 96 93 73 86 85 81 78 66 55 51 47 43 41 42 44 44 39 37 40 41 30 34 45 46 49 46 54 42 35 37 34 28 29 26 27
90 92 96 91 90 88 93 94 97 98 93 98 96 88 76 77 88 87 84 62 59 56 47 42 49 56 53 49 49 48 39 46 40 41 47 48 55 55 45 54 41 40 42 33 32 30 27
92 91 94 96 94 94 94 95 93 96 92 97 95 87 89 89 80 79 71 66 64 58 60 53 58 54 48 47 46 43 46 47 51 56 49 57 59 63 71 52 46 39 41 36 30 32 37
95 93 92 95 97 96 95 95 94 89 94 98 98 96 95 98 88 78 67 70 69 64 58 58 52 54 60 53 53 55 58 43 46 54 59 52 65 79 73 69 45 38 29 28 28 30 36
92 95 93 93 96 97 96 96 92 86 87 98 99 96 97 97 95 86 83 69 75 77 68 63 60 60 58 62 66 79 79 60 52 44 46 52 60 64 90 63 54 42 29 23 27 40 41
91 93 94 94 94 96 96 96 94 89 93 97 96 95 97 99 94 88 91 86 78 75 74 76 62 59 67 70 90 85 76 60 63 61 54 61 70 65 78 76 62 44 27 29 42 45 50
91 92 94 95 94 95 96 96 94 92 93 96 99 97 96 99 92 85 84 88 90 84 77 68 68 69 82 70 81 90 86 71 64 54 57 57 75 81 76 75 53 45 37 38 46 53 51
93 92 93 95 95 95 95 96 93 92 93 94 99 98 96 94 92 80 78 73 76 80 95 91 76 67 71 77 89 88 89 81 72 76 55 59 57 65 61 60 52 50 46 49 45 49 53